Marion, VA

5:53 PM EST on January 17, 2018 (GMT -0500)
Mountain Empire

Weather History for KMKJ - December, 2012

Change the Weather History Date:

Thursday, December 27, 2012

  Actual Average (KBLF) Record (KBLF)
Temperature  
Mean Temperature 30 °F -  
Max Temperature 33 °F 40 °F 74 °F (2015)
Min Temperature 28 °F 26 °F 8 °F (2017)
Degree Days  
Heating Degree Days 34    
Moisture  
Dew Point 27 °F    
Average Humidity 89    
Maximum Humidity 96    
Minimum Humidity 84    
Precipitation  
Precipitation 0.00 in - - ()
Sea Level Pressure  
Sea Level Pressure 29.93 in    
Wind  
Wind Speed 23 mph (West)    
Max Wind Speed 36 mph    
Max Gust Speed 45 mph    
Visibility 10 miles    
Events      
Averages and records for this station are not official NWS values.
T = Trace of Precipitation, MM = Missing Value Source: NWS Daily Summary

Daily Weather History Graph

Daily Weather History Graph

Search for Another Location

Airport or City:

Trip Planner

Search our weather history database for the weather conditions in past years. The results will help you decide how hot, cold, wet, or windy it might be!

Date:

Astronomy

Dec. 27, 2012 Rise Set
Actual Time 7:37 AM EST 5:16 PM EST
Civil Twilight 7:08 AM EST 5:45 PM EST
Nautical Twilight 6:35 AM EST 6:17 PM EST
Astronomical Twilight 6:04 AM EST 6:49 PM EST
Moon 4:57 PM EST (12/27) 6:47 AM EST (12/27)
Length of Visible Light 10h 36m
Length of Day
9h 39m
Full, 100% of the Moon is Illuminated
Dec 27
Full
Dec 28
Full
Jan 4
Last Quarter
Jan 11
New
Jan 18
First Quarter

Hourly Weather History & Observations

Time (EST) Temp. Windchill Dew Point Humidity Pressure Visibility Wind Dir Wind Speed Gust Speed Precip Events Conditions
12:15 AM 33.3 °F 20.9 °F 30.0 °F 88% 29.68 in 10.0 mi West 23.0 mph 35.7 mph N/A   Overcast
12:35 AM 32.9 °F 19.1 °F 30.0 °F 89% 29.69 in 10.0 mi West 28.8 mph 40.3 mph N/A   Overcast
12:55 AM 32.4 °F 17.7 °F 29.7 °F 90% 29.70 in 10.0 mi West 32.2 mph 40.3 mph N/A   Overcast
1:15 AM 32.2 °F 18.6 °F 29.5 °F 90% 29.70 in 7.0 mi West 26.5 mph 38.0 mph N/A   Overcast
1:35 AM 32.2 °F 18.9 °F 28.9 °F 88% 29.70 in 7.0 mi West 25.3 mph 40.3 mph N/A   Overcast
1:55 AM 32.0 °F 17.2 °F 28.9 °F 88% 29.71 in 5.0 mi West 32.2 mph 44.9 mph N/A   Overcast
2:15 AM 32.0 °F 18.6 °F 28.4 °F 87% 29.73 in 10.0 mi West 25.3 mph 40.3 mph N/A   Overcast
2:35 AM 32.0 °F 16.7 °F 27.7 °F 84% 29.73 in 10.0 mi West 34.5 mph 42.6 mph N/A   Overcast
2:55 AM 32.0 °F 18.9 °F 27.9 °F 85% 29.74 in 10.0 mi West 24.2 mph 38.0 mph N/A   Overcast
3:15 AM 32.0 °F 17.9 °F 28.2 °F 86% 29.75 in 10.0 mi West 28.8 mph 38.0 mph N/A   Overcast
3:35 AM 32.0 °F 18.1 °F 28.4 °F 87% 29.75 in 10.0 mi West 27.6 mph 36.8 mph N/A   Overcast
3:55 AM 31.8 °F 17.4 °F 28.4 °F 87% 29.76 in 5.0 mi West 29.9 mph 40.3 mph N/A   Overcast
4:15 AM 31.3 °F 16.2 °F 28.2 °F 88% 29.76 in 3.0 mi West 32.2 mph 38.0 mph N/A   Overcast
4:55 AM 31.1 °F 15.3 °F 27.0 °F 85% 29.78 in 5.0 mi West 35.7 mph 41.4 mph N/A   Overcast
5:15 AM 31.1 °F 15.9 °F 27.0 °F 85% 29.79 in 10.0 mi West 32.2 mph 39.1 mph N/A   Overcast
5:35 AM 31.1 °F 16.4 °F 27.1 °F 85% 29.80 in 10.0 mi West 29.9 mph 40.3 mph N/A   Overcast
5:55 AM 30.9 °F 16.2 °F 27.1 °F 86% 29.82 in 10.0 mi West 29.9 mph 36.8 mph N/A   Overcast
6:15 AM 30.7 °F 16.7 °F 27.0 °F 86% 29.83 in 10.0 mi West 26.5 mph 40.3 mph N/A   Overcast
6:35 AM 30.6 °F 16.7 °F 27.1 °F 87% 29.85 in 10.0 mi West 25.3 mph 40.3 mph N/A   Overcast
6:55 AM 30.2 °F 16.8 °F 27.1 °F 88% 29.86 in 10.0 mi West 23.0 mph 40.3 mph N/A   Overcast
7:15 AM 30.0 °F 15.4 °F 27.3 °F 90% 29.87 in 10.0 mi WNW 27.6 mph 36.8 mph N/A   Overcast
7:35 AM 30.0 °F 16.3 °F 27.5 °F 90% 29.88 in 10.0 mi West 24.2 mph 41.4 mph N/A   Overcast
7:55 AM 29.8 °F 15.2 °F 27.7 °F 92% 29.89 in 10.0 mi West 27.6 mph 36.8 mph N/A   Overcast
8:15 AM 30.0 °F 16.3 °F 28.4 °F 94% 29.90 in 10.0 mi West 24.2 mph 35.7 mph N/A   Overcast
8:35 AM 29.8 °F 15.7 °F 28.0 °F 93% 29.91 in 10.0 mi West 25.3 mph 36.8 mph N/A   Overcast
8:55 AM 30.0 °F 15.7 °F 28.2 °F 93% 29.91 in 10.0 mi West 26.5 mph 34.5 mph N/A   Overcast
9:15 AM 30.2 °F 17.4 °F 27.7 °F 90% 29.93 in 10.0 mi West 20.7 mph 28.8 mph N/A   Overcast
9:35 AM 30.2 °F 17.8 °F 27.5 °F 90% 29.94 in 10.0 mi West 19.6 mph 32.2 mph N/A   Overcast
9:55 AM 30.4 °F 18.7 °F 27.9 °F 90% 29.95 in 10.0 mi West 17.3 mph 27.6 mph N/A   Overcast
10:15 AM 30.6 °F 17.6 °F 28.2 °F 91% 29.95 in 10.0 mi West 21.9 mph 29.9 mph N/A   Overcast
10:35 AM 30.4 °F 17.7 °F 28.2 °F 92% 29.95 in 10.0 mi West 20.7 mph 27.6 mph N/A   Overcast
10:55 AM 30.6 °F 18.2 °F 28.0 °F 90% 29.95 in 10.0 mi West 19.6 mph 24.2 mph N/A   Overcast
11:15 AM 30.7 °F 16.9 °F 27.5 °F 88% 29.94 in 10.0 mi West 25.3 mph 33.4 mph N/A   Overcast
11:35 AM 30.7 °F 18.5 °F 27.7 °F 88% 29.95 in 10.0 mi West 19.6 mph 33.4 mph N/A   Overcast
11:55 AM 30.6 °F 16.2 °F 26.8 °F 86% 29.94 in 10.0 mi West 27.6 mph 36.8 mph N/A   Overcast
12:15 PM 30.6 °F 15.7 °F 26.6 °F 85% 29.94 in 10.0 mi West 29.9 mph 39.1 mph N/A   Overcast
12:35 PM 30.6 °F 17.0 °F 26.4 °F 85% 29.95 in 10.0 mi West 24.2 mph 36.8 mph N/A   Overcast
12:55 PM 30.6 °F 17.6 °F 26.6 °F 85% 29.96 in 10.0 mi West 21.9 mph 32.2 mph N/A   Overcast
1:15 PM 30.2 °F 17.1 °F 27.0 °F 88% 29.95 in 10.0 mi West 21.9 mph 31.1 mph N/A   Overcast
1:35 PM 30.2 °F 16.2 °F 27.1 °F 88% 29.95 in 10.0 mi West 25.3 mph 31.1 mph N/A   Overcast
1:55 PM 30.2 °F 17.1 °F 27.7 °F 90% 29.95 in 10.0 mi West 21.9 mph 29.9 mph N/A   Overcast
2:15 PM 30.2 °F 17.4 °F 28.0 °F 92% 29.96 in 10.0 mi West 20.7 mph 25.3 mph N/A   Overcast
2:35 PM 30.2 °F 18.1 °F 28.2 °F 92% 29.96 in 10.0 mi West 18.4 mph 27.6 mph N/A   Overcast
2:55 PM 30.2 °F 16.8 °F 28.0 °F 92% 29.96 in 10.0 mi WNW 23.0 mph 28.8 mph N/A   Overcast
3:15 PM 30.2 °F 16.5 °F 27.5 °F 90% 29.97 in 10.0 mi WNW 24.2 mph 31.1 mph N/A   Overcast
3:35 PM 30.2 °F 19.3 °F 27.5 °F 90% 30.00 in 10.0 mi West 15.0 mph 23.0 mph N/A   Overcast
3:55 PM 30.2 °F 19.8 °F 27.3 °F 89% 30.01 in 10.0 mi West 13.8 mph 23.0 mph N/A   Overcast
4:15 PM 30.2 °F 19.3 °F 28.4 °F 93% 30.02 in 10.0 mi West 15.0 mph 19.6 mph N/A   Overcast
4:35 PM 29.8 °F 18.4 °F 27.9 °F 92% 30.02 in 10.0 mi West 16.1 mph 21.9 mph N/A   Overcast
4:55 PM 29.8 °F 19.3 °F 28.4 °F 94% 30.02 in 10.0 mi WNW 13.8 mph 20.7 mph N/A   Overcast
5:15 PM 29.5 °F 19.3 °F 28.4 °F 96% 30.03 in 10.0 mi West 12.7 mph 18.4 mph N/A   Overcast
5:35 PM 29.3 °F 21.5 °F 27.3 °F 92% 30.04 in 10.0 mi WNW 8.1 mph 16.1 mph N/A   Overcast
5:55 PM 29.3 °F 20.8 °F 27.5 °F 93% 30.05 in 10.0 mi West 9.2 mph - N/A   Overcast
6:15 PM 29.3 °F 19.1 °F 27.5 °F 93% 30.05 in 10.0 mi West 12.7 mph 17.3 mph N/A   Overcast
6:35 PM 29.3 °F 20.2 °F 26.6 °F 90% 30.06 in 10.0 mi West 10.4 mph 18.4 mph N/A   Overcast
6:55 PM 29.3 °F 19.1 °F 27.1 °F 92% 30.07 in 10.0 mi West 12.7 mph 17.3 mph N/A   Overcast
7:15 PM 29.3 °F 20.2 °F 26.4 °F 89% 30.07 in 10.0 mi WSW 10.4 mph 16.1 mph N/A   Overcast
7:35 PM 29.3 °F 19.6 °F 26.8 °F 90% 30.07 in 10.0 mi West 11.5 mph - N/A   Overcast
8:15 PM 29.1 °F 20.0 °F 26.4 °F 90% 30.07 in 10.0 mi West 10.4 mph - N/A   Overcast
8:35 PM 29.1 °F 20.0 °F 26.4 °F 90% 30.07 in 10.0 mi West 10.4 mph - N/A   Overcast
8:55 PM 29.1 °F 20.0 °F 26.2 °F 89% 30.07 in 10.0 mi West 10.4 mph - N/A   Overcast
9:15 PM 29.1 °F 21.3 °F 25.9 °F 88% 30.07 in 10.0 mi West 8.1 mph - N/A   Overcast
9:35 PM 29.1 °F 19.4 °F 26.1 °F 88% 30.07 in 10.0 mi West 11.5 mph - N/A   Overcast
9:55 PM 29.1 °F 20.0 °F 26.2 °F 89% 30.07 in 10.0 mi West 10.4 mph - N/A   Overcast
10:15 PM 28.8 °F 17.5 °F 25.9 °F 89% 30.07 in 10.0 mi West 15.0 mph 19.6 mph N/A   Overcast
10:35 PM 28.8 °F 18.4 °F 25.7 °F 88% 30.07 in 10.0 mi West 12.7 mph - N/A   Overcast
10:55 PM 28.8 °F 20.2 °F 25.9 °F 89% 30.07 in 10.0 mi WNW 9.2 mph - N/A   Overcast
11:15 PM 28.9 °F 21.1 °F 26.4 °F 90% 30.07 in 10.0 mi WNW 8.1 mph - N/A   Overcast
11:35 PM 29.1 °F 21.3 °F 26.6 °F 90% 30.08 in 10.0 mi West 8.1 mph - N/A   Overcast
11:55 PM 28.9 °F 21.9 °F 26.1 °F 89% 30.07 in 10.0 mi WNW 6.9 mph - N/A   Overcast